Wind_Speed
20 21 22 22 22 23 23 22 23 24 26 26 27 27 28 27 27 28 28 28 28 28 28 28 28 28 28 28 28 28 28 28 28 29 29 30 30 30 30 31 31 31 31 31 31 31 31 31 32 32 32 32 32 31 31 31 31 31 31 31 31 31 31 31 30 30 30 30 30 30 30 30 30 30 30 30 30 30 30 30 30 30 30 30 30 31
21 21 21 21 21 22 22 22 23 24 26 28 28 28 28 29 29 28 28 27 27 26 26 27 27 27 28 28 28 28 27 28 28 29 29 30 30 30 31 31 31 31 31 31 31 31 32 32 32 32 32 32 32 32 31 31 31 31 31 31 31 31 31 31 31 31 31 30 30 30 30 30 30 30 30 30 30 30 30 30 30 30 30 30 30 30
21 21 21 20 21 21 22 23 24 25 26 28 28 28 29 29 29 28 27 27 26 26 26 26 27 27 28 28 28 27 27 27 28 29 29 30 30 31 31 31 31 31 31 31 32 32 32 32 32 32 32 32 32 32 32 32 32 32 32 32 31 31 31 31 31 31 30 30 30 29 29 29 29 28 28 28 28 29 29 29 29 29 30 30 30 30
20 20 21 21 21 22 22 24 25 26 26 27 27 28 28 28 28 27 26 26 26 25 26 26 26 27 27 27 27 27 27 27 28 29 29 30 30 31 31 31 31 31 31 32 32 32 32 32 32 32 31 32 32 32 32 32 32 32 32 32 32 31 31 31 30 30 30 29 29 28 28 28 28 28 28 28 28 28 29 29 29 29 30 30 30 30
20 20 22 22 22 23 23 24 25 26 26 26 26 27 27 27 26 26 26 25 25 25 25 25 25 26 26 27 27 27 27 27 28 29 29 30 30 31 31 31 31 31 31 31 32 32 32 32 31 32 31 32 32 32 32 32 32 32 32 32 32 32 31 31 31 30 30 29 29 29 29 28 28 29 28 29 29 29 29 29 29 29 30 30 30 30
21 21 22 22 22 23 24 24 24 24 25 25 26 26 26 26 25 25 24 23 24 24 25 25 25 26 26 27 27 27 27 27 28 29 29 30 30 30 31 31 31 31 31 31 31 31 31 31 31 31 32 32 32 32 32 32 32 32 32 32 32 32 31 31 31 30 30 30 29 29 29 29 29 29 28 28 28 29 29 29 29 29 30 30 30 30
22 22 22 22 22 23 23 23 23 24 24 25 26 26 25 25 24 23 22 23 24 25 25 26 26 26 26 27 27 27 27 28 28 28 29 29 30 30 30 30 30 30 31 31 31 31 31 31 31 31 32 32 32 32 32 33 33 32 32 32 32 31 31 31 30 30 30 30 29 29 29 29 28 28 28 28 28 28 28 28 28 29 29 29 29 30
22 22 22 22 22 23 22 22 22 23 25 26 26 26 25 23 21 21 22 23 24 24 25 25 26 26 26 26 27 27 27 27 28 28 29 29 29 29 29 29 30 30 31 31 31 31 31 31 31 32 32 32 32 32 33 33 32 32 32 32 31 31 31 30 30 30 30 29 29 29 28 28 28 27 27 27 27 27 28 28 28 28 29 29 29 29
21 22 21 21 21 22 23 23 24 24 25 25 24 23 22 21 21 21 23 24 24 24 24 25 26 26 26 27 27 27 27 27 27 27 28 29 29 29 29 30 30 30 30 30 30 30 31 31 31 32 32 32 32 32 32 32 32 32 31 31 31 30 30 30 30 30 29 29 29 29 28 28 28 27 27 27 28 28 28 28 28 29 29 29 29 30
20 20 21 21 21 21 22 24 26 26 26 25 22 20 19 20 21 23 24 24 25 25 24 25 25 26 27 27 27 27 27 27 27 27 28 29 30 30 29 29 29 29 29 29 30 30 31 31 32 32 32 32 32 32 32 31 31 31 30 30 30 30 29 29 29 29 29 29 29 29 29 28 28 28 28 29 29 29 29 29 29 29 30 30 30 30
18 19 20 21 21 21 21 23 24 25 25 22 20 17 16 18 21 23 24 25 26 26 25 25 25 26 27 28 27 27 27 27 28 28 29 29 29 29 28 27 27 27 28 29 30 30 31 31 31 32 32 32 32 31 31 30 30 30 30 29 29 29 29 29 29 29 29 29 29 29 29 29 30 30 30 30 30 30 30 30 30 30 30 30 30 31
17 18 19 19 19 19 20 21 22 22 20 17 16 16 17 19 21 22 23 24 25 26 26 26 25 26 27 27 28 27 27 27 27 28 28 29 28 27 26 25 25 26 27 28 30 30 31 31 31 31 31 31 30 30 29 29 29 29 29 29 29 29 29 29 29 30 30 30 30 30 30 30 30 30 30 30 30 30 30 30 30 30 30 30 31 31
17 18 17 18 18 19 20 21 20 17 15 14 15 17 19 21 22 22 23 24 25 25 26 26 26 26 27 27 27 26 26 26 26 26 26 26 26 25 24 24 25 27 28 29 30 31 31 31 30 30 30 30 29 29 29 29 29 29 29 29 29 29 30 30 30 30 31 31 31 31 31 31 31 30 30 30 30 30 30 30 30 31 31 31 31 31
18 19 18 19 19 21 21 20 17 15 14 16 18 20 22 23 23 23 23 23 24 25 25 26 27 27 27 26 25 25 25 24 24 24 24 24 24 23 24 24 26 28 29 30 31 31 31 30 30 30 30 30 29 29 29 28 29 29 29 29 30 30 30 31 31 31 31 31 31 31 31 31 31 31 31 31 31 31 31 31 31 31 31 31 31 31
18 19 18 18 19 20 19 17 16 16 18 20 22 23 23 23 22 22 22 22 24 25 25 26 27 27 26 25 24 23 23 22 22 22 22 23 24 25 25 26 27 29 29 30 31 31 31 30 29 30 30 30 30 29 29 29 29 29 30 30 31 31 31 31 32 32 32 31 31 31 31 31 31 31 31 31 31 31 31 31 31 31 31 31 32 32
17 18 17 18 18 18 18 17 18 20 22 23 23 23 22 22 21 21 21 22 24 24 24 24 24 24 25 25 23 22 21 21 20 20 21 24 26 27 26 26 28 29 30 30 30 30 30 29 29 29 29 30 29 29 29 29 30 30 31 31 31 32 32 32 32 32 32 32 32 32 32 32 32 31 31 31 31 31 31 31 31 31 31 31 31 31
18 18 18 17 17 18 19 20 21 22 23 23 22 21 21 21 21 22 22 23 23 23 22 21 16 13 16 23 24 22 20 20 19 20 22 26 29 30 28 27 27 28 29 29 29 29 29 28 28 29 29 29 29 29 29 30 31 31 31 32 32 32 32 32 32 33 33 33 32 32 32 32 31 31 31 31 30 30 30 30 30 30 30 30 30 30
18 18 19 18 18 19 21 22 22 22 22 22 21 21 21 21 22 23 23 23 23 22 22 22 17 12 11 17 21 22 20 20 20 22 24 28 31 31 29 26 26 27 28 28 28 28 28 28 28 29 29 30 30 30 31 31 31 32 32 32 32 32 32 33 33 33 33 33 33 32 32 32 31 31 31 30 30 30 30 30 30 30 30 30 30 30
20 20 19 19 20 21 21 22 22 22 21 21 21 22 22 23 23 23 23 24 24 23 22 21 20 19 18 19 22 23 21 21 21 23 25 29 31 31 29 26 25 25 26 27 27 27 27 28 29 29 30 30 30 31 31 31 31 32 32 32 32 32 33 33 33 33 33 33 33 32 32 32 31 31 31 30 30 30 30 30 31 31 31 31 31 31
20 20 21 21 21 21 22 22 22 22 21 21 22 23 23 24 24 24 24 24 24 23 22 21 20 20 20 21 22 24 24 24 24 24 26 28 30 29 27 24 23 24 25 26 27 27 27 28 29 30 30 30 30 31 31 31 32 32 32 32 33 33 33 33 33 33 33 33 32 32 32 32 31 31 31 31 31 30 30 30 30 30 30 30 30 30
21 22 22 22 21 21 21 22 23 23 23 24 24 24 24 24 25 25 25 25 23 21 19 17 17 19 20 21 24 27 28 26 24 23 25 25 26 27 25 23 22 23 25 26 27 26 27 27 29 29 30 30 30 31 32 32 32 33 33 33 33 33 33 33 33 33 33 33 32 32 32 31 31 31 31 31 31 31 31 30 30 30 30 30 30 30
22 23 23 23 22 22 23 24 24 25 25 26 25 24 24 24 25 25 25 23 20 18 17 17 19 22 24 27 29 30 29 26 23 21 21 20 23 25 24 22 22 23 24 26 26 26 26 27 28 29 30 31 31 31 32 32 32 33 33 33 33 33 33 33 33 33 32 32 32 32 31 31 31 31 31 31 31 31 31 31 31 30 30 30 30 30
22 22 23 23 23 23 24 25 25 26 26 25 25 25 25 26 25 23 21 19 18 19 20 23 26 28 29 29 29 29 27 24 22 20 18 14 18 23 24 22 22 23 24 25 26 26 27 27 28 29 30 30 31 31 32 32 33 33 33 33 33 33 32 32 32 32 32 32 32 32 32 32 32 32 32 31 31 31 31 31 30 30 30 30 30 30
22 23 23 24 24 24 24 25 25 25 25 25 26 26 27 25 23 21 20 21 23 25 27 28 29 28 27 27 26 26 25 23 21 19 17 16 18 23 24 23 22 23 25 26 26 26 27 28 28 29 29 30 31 31 32 32 33 33 33 33 32 32 32 32 32 32 32 32 32 32 32 32 32 32 32 31 31 31 31 31 31 31 31 31 31 31
22 23 23 24 24 24 25 25 26 26 27 28 28 27 25 24 23 24 26 27 27 27 26 25 24 23 23 24 24 24 24 22 20 18 17 16 19 23 24 23 22 23 25 26 26 26 26 27 28 29 29 30 31 31 32 32 32 32 32 32 32 32 32 32 32 32 32 32 33 32 32 32 32 32 31 31 31 31 31 31 31 31 31 31 31 32
23 23 24 25 26 26 27 28 29 29 29 28 27 26 25 25 25 26 27 25 24 22 21 20 19 19 22 22 22 22 23 22 20 18 17 17 19 22 24 23 22 23 25 26 26 25 25 27 28 29 30 31 31 31 31 31 31 31 31 31 31 32 32 32 32 33 33 33 33 32 32 32 31 31 31 31 31 31 31 31 31 31 31 31 32 32
24 24 25 26 26 26 26 26 26 27 26 26 25 25 24 24 24 23 22 21 20 19 18 15 14 15 19 19 20 22 24 23 21 19 19 19 19 20 22 22 22 22 24 26 26 26 26 27 28 29 30 30 30 30 30 29 30 30 31 31 32 32 32 33 33 33 32 32 32 32 31 31 31 31 31 31 31 31 31 31 31 31 31 31 31 30
23 23 24 24 23 23 24 24 25 25 25 25 25 24 23 21 20 19 19 19 19 18 18 15 12 11 13 16 20 24 25 24 22 20 19 18 17 18 21 22 22 22 23 25 27 27 26 26 27 28 28 29 29 29 29 29 29 30 31 32 32 32 32 32 32 32 32 31 31 31 31 31 31 31 31 31 31 31 31 31 31 31 31 30 29 29
21 21 21 21 21 22 22 23 24 24 24 23 23 21 20 19 18 19 20 20 19 18 18 17 16 14 15 18 22 25 25 24 22 20 18 16 16 18 21 22 22 23 23 24 26 27 25 24 24 24 26 26 27 27 28 29 30 30 31 31 32 32 32 31 31 31 31 31 31 31 31 31 31 31 31 31 31 31 31 30 30 30 29 28 28 28
18 18 19 21 22 22 23 24 24 23 22 21 20 20 19 18 19 20 21 21 20 19 18 18 18 18 18 18 17 18 20 22 20 17 16 15 16 19 22 22 23 23 22 20 17 17 20 23 23 22 23 25 26 28 29 30 30 30 30 30 31 31 30 30 30 30 30 30 31 31 31 31 31 31 31 31 31 31 30 30 30 29 28 27 27 27
20 21 22 23 23 23 23 22 22 21 21 21 20 20 19 19 19 20 20 20 19 19 19 19 19 19 18 13 8 6 10 20 22 19 18 16 17 20 22 22 23 23 22 17 8 4 11 16 21 24 23 25 27 28 29 30 30 29 29 30 30 30 30 30 29 30 30 30 30 30 30 31 31 31 31 31 30 30 30 30 29 28 27 27 26 26
22 23 23 23 23 22 22 21 21 21 21 21 21 20 20 19 19 19 19 20 19 19 19 20 20 20 19 16 11 9 13 23 26 23 21 18 19 21 22 21 22 23 23 21 16 10 8 8 17 26 26 26 27 28 29 29 29 29 30 30 30 30 30 30 29 29 29 30 30 30 30 30 30 30 30 30 30 30 30 30 29 28 27 26 25 25
22 22 22 22 22 22 21 21 21 21 21 21 21 20 20 19 19 19 19 19 19 19 19 20 20 20 20 21 20 20 24 27 27 25 22 20 19 20 22 22 22 23 24 24 23 20 15 13 19 26 27 27 27 27 28 28 29 29 29 29 30 30 31 30 29 29 29 30 30 30 30 30 30 30 30 30 30 30 29 29 28 27 26 25 25 25
22 21 21 21 21 21 21 21 21 21 21 21 20 20 20 19 19 19 19 20 20 20 20 21 21 21 21 21 22 24 27 29 28 25 22 21 20 20 23 23 23 23 23 23 23 22 21 22 23 24 24 27 27 27 27 27 28 29 29 29 29 30 30 29 29 29 29 30 29 29 30 30 30 30 30 29 29 29 28 28 27 27 26 26 26 26
21 21 21 21 21 21 21 21 21 21 20 20 20 20 19 19 20 20 20 20 20 21 21 22 22 22 22 21 22 24 27 29 29 26 24 22 22 22 24 24 24 23 22 21 21 20 20 23 24 24 22 24 26 28 27 27 28 28 29 29 29 29 30 29 29 29 29 30 29 29 29 30 30 30 29 29 28 28 28 28 28 28 29 29 28 28
20 20 20 20 20 20 21 21 21 21 20 20 20 20 20 20 20 20 21 22 22 22 23 23 23 24 25 24 24 25 28 31 31 29 27 25 24 23 23 25 25 24 22 22 21 19 18 20 23 25 23 20 20 24 28 28 28 28 29 29 28 29 29 29 29 29 29 29 29 29 28 28 28 28 29 28 28 28 28 29 30 30 30 30 30 29
19 19 19 19 19 20 20 21 21 20 21 21 21 21 21 21 21 22 22 23 23 24 24 25 25 26 26 27 28 29 31 33 33 32 31 29 28 27 25 26 27 27 24 23 22 22 21 19 19 21 21 18 17 20 25 28 29 29 29 29 28 28 29 29 29 28 28 28 28 28 28 27 27 27 28 28 29 30 30 30 30 30 30 29 29 29
18 19 19 19 19 19 20 20 20 21 21 21 21 22 22 23 23 23 23 24 24 25 25 26 26 27 28 29 30 32 34 35 35 36 35 34 32 30 28 27 27 27 25 24 24 24 22 16 13 12 11 17 21 24 26 28 28 29 30 30 29 29 29 29 28 27 27 27 27 28 28 28 28 28 29 29 30 30 30 30 30 29 28 28 28 28
18 18 19 19 19 19 19 20 20 21 21 22 22 23 23 23 24 24 24 24 24 25 25 25 26 27 29 31 32 33 33 34 35 35 35 34 33 31 29 28 27 28 27 26 25 25 23 18 14 11 9 14 20 25 28 28 28 29 30 30 29 29 28 27 27 26 26 27 28 28 28 28 28 28 28 29 29 28 28 28 29 29 28 28 28 29
18 18 19 19 19 19 20 21 21 22 22 23 23 23 23 23 23 24 24 24 24 24 25 26 26 27 28 29 30 30 31 32 33 33 33 33 33 32 30 28 28 28 27 26 26 25 24 23 22 22 21 19 20 23 26 27 28 29 29 26 25 27 28 28 27 27 27 27 27 27 27 27 27 27 27 27 27 27 28 28 29 29 28 27 27 27
18 19 19 20 20 20 21 21 22 22 22 23 23 23 22 22 23 24 24 25 24 24 24 24 25 26 28 29 29 29 29 30 30 30 31 31 31 31 30 29 28 28 27 27 26 25 25 25 25 25 25 25 25 25 26 28 29 30 29 26 25 28 30 30 28 27 26 26 26 25 25 26 26 26 26 27 28 29 30 29 29 29 29 28 27 26
19 19 20 20 21 21 21 22 22 22 22 22 21 21 21 21 22 23 23 24 25 25 24 24 24 25 27 28 29 29 28 28 28 28 29 29 29 30 30 30 29 28 27 26 25 26 26 26 25 24 25 25 25 24 24 28 30 31 29 28 28 29 30 29 28 26 25 25 25 25 25 25 26 27 28 28 29 30 31 31 30 30 28 27 27 27
19 20 21 21 21 21 22 22 21 21 21 21 21 21 22 22 22 22 22 23 24 24 24 23 23 24 25 27 28 29 29 28 27 27 27 27 28 28 29 29 30 29 28 26 25 25 26 26 25 25 26 26 25 24 24 27 29 30 30 29 28 25 21 25 27 27 26 26 26 26 26 26 26 27 28 28 29 29 30 29 29 28 27 26 26 27
20 20 21 21 21 21 21 21 21 21 22 22 22 23 23 22 22 22 22 23 23 24 24 23 23 23 23 24 27 29 29 29 28 27 27 26 26 26 26 27 28 28 28 26 24 24 25 26 26 26 27 26 25 24 25 26 28 29 30 30 28 25 22 24 27 28 27 27 27 26 26 26 27 27 28 27 27 27 26 25 25 26 26 26 27 28
20 20 21 21 21 21 21 21 21 22 22 22 22 23 23 22 22 22 22 22 23 23 23 22 21 21 21 23 25 26 28 29 29 28 27 27 26 25 25 25 26 27 27 26 26 25 24 24 26 27 28 27 25 25 25 26 27 28 29 30 29 28 28 29 29 28 27 27 27 28 28 28 28 28 27 26 25 24 24 24 25 26 27 28 28 29
19 20 20 21 21 21 21 22 22 22 22 22 23 23 23 23 22 22 22 22 22 22 23 22 21 19 20 22 23 24 25 27 28 29 28 28 27 26 26 25 25 26 26 27 27 27 26 26 27 28 28 27 26 27 28 28 27 27 28 29 28 28 29 29 29 28 28 27 28 29 28 28 26 24 23 24 25 26 26 26 27 27 28 28 28 29
19 20 20 21 21 21 21 21 21 21 22 23 23 23 23 23 22 22 22 22 21 22 22 22 21 20 21 22 22 22 23 24 26 28 28 29 28 28 27 27 26 26 26 27 27 28 29 29 29 28 26 24 24 25 28 29 28 27 27 28 27 27 26 27 28 28 27 27 27 28 27 26 24 23 23 25 26 27 28 28 29 28 28 27 27 28
20 20 21 21 21 21 21 21 21 22 22 23 24 24 24 23 22 22 22 22 22 21 22 21 21 20 21 22 23 23 23 23 25 26 27 28 28 28 27 27 27 27 27 28 28 28 29 30 31 30 29 26 23 24 27 29 28 27 27 26 26 25 25 27 27 27 26 27 27 27 26 25 23 23 24 25 26 27 29 29 29 28 27 27 28 28
20 20 21 20 21 21 21 21 22 22 22 23 24 24 25 24 23 22 21 22 22 21 21 21 20 21 21 22 23 24 24 24 25 25 26 26 26 26 26 27 27 27 28 29 29 28 28 29 29 29 28 28 27 26 27 28 28 27 26 25 24 23 24 26 27 27 27 27 27 28 27 26 24 24 23 23 24 26 29 30 30 28 27 26 27 28
20 20 20 20 20 20 21 21 22 22 22 23 24 24 25 25 24 23 22 22 21 21 20 21 20 21 21 22 23 24 24 24 24 24 25 25 25 25 25 26 26 26 26 26 26 26 25 24 24 25 25 25 26 27 27 27 27 27 25 24 24 24 24 26 27 28 28 27 27 27 27 26 25 25 23 22 23 25 27 29 29 28 27 25 25 26
20 20 20 20 20 20 21 21 22 22 23 23 23 24 24 24 24 24 23 22 22 21 21 21 21 21 21 22 23 24 24 23 23 24 25 26 25 24 24 24 24 23 22 20 19 18 16 15 16 19 21 21 21 22 24 24 24 23 23 23 24 25 25 26 27 28 28 27 27 27 26 26 25 24 23 22 21 21 22 25 27 28 27 25 24 25
Wind_Direction
302 304 306 308 309 309 308 310 311 311 311 311 310 310 309 307 306 305 304 304 303 303 303 303 303 303 303 303 302 301 301 302 302 302 302 302 302 302 302 302 302 302 302 302 302 302 302 302 302 301 301 301 300 300 299 299 298 297 296 296 295 294 293 293 292 291 291 290 289 288 287 287 287 285 284 283 283 282 282 281 280 280 279 279 278 277
304 305 306 308 309 309 308 309 310 310 310 309 308 307 307 306 305 304 304 303 303 303 304 304 304 304 303 302 302 301 301 302 302 302 302 302 302 302 302 302 302 302 302 302 302 302 302 302 301 301 301 300 300 300 299 298 298 297 297 296 296 295 294 294 293 293 292 291 290 289 288 288 287 286 284 283 282 281 280 279 278 278 277 276 275 274
307 308 308 309 310 309 308 309 309 308 307 306 305 305 304 304 303 303 303 303 304 304 304 304 303 303 302 302 301 301 301 302 302 302 302 302 302 302 302 302 302 302 302 302 301 301 301 301 301 301 301 300 300 299 299 298 298 297 297 297 296 296 295 295 294 294 293 293 292 292 291 291 290 289 287 286 285 283 282 281 280 278 277 276 275 275
308 308 309 310 310 308 307 307 307 306 305 304 303 303 303 303 302 302 302 303 303 303 304 304 304 303 302 302 302 302 302 302 302 302 302 302 302 302 302 302 302 302 301 301 301 301 301 301 300 300 300 300 299 299 298 298 298 298 298 298 297 296 296 296 296 295 295 295 295 294 294 294 293 291 290 288 286 285 283 282 281 280 279 277 277 276
307 307 308 310 309 307 305 305 305 305 304 303 302 303 303 302 301 301 302 302 303 304 304 304 304 303 303 302 302 302 302 302 302 302 302 302 301 301 301 301 301 301 301 300 300 300 300 300 300 299 299 299 299 298 298 298 298 298 298 298 297 297 297 297 296 296 296 296 295 295 294 294 292 290 289 288 286 285 284 283 282 281 279 278 277 276
305 305 306 306 305 304 304 304 304 304 304 303 303 303 302 301 301 300 301 303 304 305 305 305 304 304 303 303 303 303 302 302 302 302 301 301 301 300 300 300 300 300 300 300 300 300 299 299 299 298 298 298 298 298 298 298 298 298 298 298 297 297 297 297 297 297 296 296 295 295 294 293 291 290 288 287 285 284 283 282 281 280 279 278 277 276
302 302 303 302 301 301 302 302 303 303 304 304 304 303 301 300 300 300 301 303 304 305 305 305 305 304 303 303 303 302 302 302 302 301 301 300 300 300 300 300 300 300 299 299 299 299 299 298 298 298 298 298 298 298 298 298 298 298 298 297 297 297 297 297 297 297 296 295 295 294 294 293 291 290 288 287 285 283 282 281 280 279 278 277 276 275
299 300 300 301 301 302 302 301 302 303 302 302 302 301 301 300 300 301 303 304 306 306 306 306 306 305 304 303 303 302 302 302 302 301 301 300 299 299 299 299 299 299 299 299 299 298 298 298 298 298 298 297 298 297 297 297 297 297 297 297 297 297 297 297 297 296 296 295 294 294 293 292 291 289 288 287 285 283 282 281 280 278 277 276 275 274
295 298 299 300 301 303 303 303 303 302 299 298 297 297 299 300 302 304 306 307 307 308 308 307 306 305 304 303 303 302 302 301 301 300 300 299 299 298 298 299 299 299 298 298 298 298 298 298 298 298 297 297 297 297 297 297 297 297 297 297 297 297 297 297 296 296 295 294 294 293 292 290 289 288 287 285 284 282 281 280 279 278 277 276 276 275
292 296 299 301 301 301 301 301 300 299 297 294 292 291 293 298 304 307 309 309 309 309 308 307 306 305 304 304 303 303 302 301 299 298 297 297 297 297 297 297 297 297 298 298 298 298 298 297 297 297 297 297 296 296 296 296 296 296 296 296 296 296 296 296 295 295 294 293 292 291 290 290 288 287 286 285 284 283 282 281 280 279 278 278 277 276
294 297 300 301 301 299 296 293 294 295 295 294 292 291 293 300 307 310 311 310 309 309 308 306 305 304 304 304 304 303 302 301 300 298 297 296 296 296 296 296 296 297 297 298 298 298 297 297 297 297 297 296 296 296 296 296 296 295 295 296 296 295 295 294 294 293 292 292 291 290 290 289 289 288 287 286 285 284 283 282 281 280 279 279 278 277
297 301 301 300 300 299 296 293 292 293 295 296 299 301 304 307 310 310 309 308 308 308 307 306 304 303 302 302 302 302 301 300 299 298 298 297 297 298 298 298 299 299 299 299 299 298 297 297 297 297 296 296 296 296 296 295 295 295 295 295 295 295 294 293 293 293 292 292 291 291 291 290 290 289 288 287 286 285 284 283 282 281 280 279 278 277
301 303 301 300 300 300 300 299 298 298 299 303 307 310 310 311 311 309 306 304 304 305 306 306 304 302 301 300 300 300 299 298 297 297 297 297 298 299 301 302 302 302 301 301 300 298 298 298 298 297 296 296 295 295 295 295 295 294 295 295 295 294 294 294 293 293 293 293 293 292 292 292 291 290 289 288 287 286 285 284 283 281 280 279 279 278
305 305 303 302 301 301 301 301 301 303 307 309 310 310 310 310 309 307 305 303 302 304 305 304 303 301 301 300 299 298 298 297 297 297 297 297 298 300 303 304 303 302 302 301 299 298 298 298 298 297 296 296 295 295 295 295 295 295 295 295 295 295 295 295 295 294 294 294 294 293 293 292 292 291 290 289 288 287 286 284 283 282 281 280 279 278
305 304 302 300 300 300 300 302 304 307 309 309 310 309 308 308 307 306 305 303 304 305 305 303 301 300 300 299 300 300 300 299 299 299 299 298 299 301 304 304 303 302 301 299 298 297 298 297 297 296 296 296 296 296 296 296 296 296 296 296 296 296 295 295 295 295 295 294 294 294 293 293 292 291 290 290 288 288 286 285 284 283 282 281 280 279
302 301 299 298 297 298 300 304 307 308 307 307 308 307 307 306 305 305 304 303 304 305 305 303 302 302 301 301 302 303 304 303 303 303 302 301 301 302 304 304 303 301 299 298 297 297 297 297 297 296 296 296 296 296 296 296 296 296 296 296 296 296 296 295 295 295 295 295 295 294 294 293 293 292 291 290 289 288 287 286 285 284 283 282 281 280
300 299 297 296 296 299 303 305 305 305 305 305 305 305 304 303 303 303 302 301 301 302 301 300 300 301 302 303 304 306 307 308 308 306 304 302 301 302 304 303 301 299 298 297 296 296 297 297 297 296 296 296 296 296 296 296 296 296 296 296 296 296 296 296 296 296 296 296 296 295 295 294 293 293 292 291 290 289 288 287 286 285 284 283 282 281
298 297 297 297 298 300 303 304 303 302 303 303 304 303 302 300 300 299 298 297 296 296 295 295 294 293 297 300 302 305 309 311 311 308 305 302 301 301 303 302 300 297 296 295 294 295 296 296 296 296 296 296 296 296 296 296 296 296 296 296 296 296 296 296 297 297 297 297 297 296 296 295 295 294 293 292 291 290 289 288 287 286 285 284 282 282
297 296 296 297 298 300 301 300 300 301 301 301 302 302 300 299 298 296 294 293 290 288 287 289 290 290 291 293 297 302 308 311 311 308 304 301 300 300 302 301 299 296 294 293 294 295 296 296 296 296 296 296 296 296 296 297 297 297 297 297 297 297 297 297 297 297 297 297 297 297 296 296 295 294 293 292 291 290 289 288 287 286 286 285 284 283
294 293 293 295 297 298 297 296 297 298 298 299 299 298 297 296 295 293 292 289 286 283 282 284 287 288 291 292 297 302 307 310 309 305 301 298 297 298 300 300 298 295 294 293 294 296 297 297 297 297 297 297 297 297 297 297 297 297 297 297 297 297 297 297 297 297 297 297 297 296 296 295 294 293 293 292 291 291 290 289 289 288 287 286 285 285
291 291 292 294 295 295 294 294 294 295 296 296 295 293 292 292 292 291 289 287 286 286 285 285 287 292 297 299 301 303 305 307 306 302 299 296 295 296 298 299 297 295 294 294 295 296 297 298 298 298 298 297 297 297 297 297 297 297 297 297 297 297 297 297 297 296 296 296 296 295 295 294 294 294 293 293 293 293 292 291 290 289 288 287 285 284
289 290 292 292 292 291 291 292 293 293 293 291 289 288 287 288 287 286 287 288 290 292 294 295 296 299 300 300 299 300 302 302 300 297 296 293 292 293 297 299 298 295 293 294 296 297 298 298 298 297 297 297 297 297 297 297 297 297 297 297 297 297 297 296 296 295 295 295 295 295 295 295 295 295 295 295 294 293 292 291 290 289 288 286 285 284
287 288 291 291 291 290 290 290 290 290 290 287 284 282 281 281 282 283 287 295 301 304 304 303 301 300 299 297 297 298 299 299 297 294 292 288 289 293 297 299 298 295 293 294 296 298 299 298 298 297 297 297 297 297 297 297 297 297 297 297 297 297 296 296 295 295 296 296 296 296 296 296 296 295 295 295 294 293 292 291 290 289 288 287 286 285
289 289 290 290 290 289 288 287 288 288 288 287 285 284 285 286 290 296 303 307 307 306 304 303 301 300 298 298 298 298 298 299 297 294 289 286 287 292 296 299 298 296 294 295 297 298 298 298 297 297 297 297 296 296 296 297 296 296 296 297 297 297 296 296 296 296 296 296 296 296 296 295 295 295 294 294 293 292 292 291 290 289 288 287 287 286
290 289 289 288 288 287 287 287 288 289 290 291 293 296 300 304 307 308 306 305 303 303 302 302 300 299 299 300 299 299 299 300 298 294 289 287 288 292 295 297 296 295 295 296 297 298 298 297 297 297 297 296 296 296 296 296 296 296 296 297 297 296 296 296 296 296 296 295 295 295 295 294 294 294 293 293 293 292 291 291 290 289 289 288 287 287
289 287 287 287 288 288 289 290 291 292 294 296 300 305 310 312 311 307 303 301 301 301 301 300 297 296 297 299 298 298 299 301 300 295 290 288 289 291 293 295 295 294 294 296 298 299 298 297 297 297 296 295 295 295 294 295 295 296 296 296 296 296 296 296 295 295 295 294 294 294 294 294 293 293 293 293 292 292 291 291 291 290 290 289 289 288
289 288 288 289 290 291 293 294 295 296 298 300 303 305 307 307 305 302 298 297 299 300 299 296 295 296 298 298 297 297 299 300 299 295 291 288 287 288 291 294 295 295 296 297 298 298 297 296 295 295 294 293 293 293 294 294 295 296 296 296 296 295 295 295 295 294 294 294 294 293 293 293 293 293 293 293 292 292 292 292 291 291 291 291 290 289
290 290 290 292 294 295 296 297 298 299 300 300 300 300 301 300 298 294 292 295 297 297 294 291 291 294 296 296 296 297 298 297 296 295 293 288 284 285 290 295 297 297 298 298 298 297 295 293 291 291 292 292 293 294 294 295 296 296 295 295 295 294 294 294 294 294 294 294 293 293 293 293 293 293 293 293 293 293 293 292 292 292 292 291 290 289
293 293 296 297 299 300 300 300 300 300 299 299 299 299 298 295 292 290 290 293 294 292 289 288 288 289 292 294 296 297 296 295 294 296 297 292 286 286 292 296 298 299 300 300 300 299 296 292 291 291 291 293 294 294 295 296 296 296 295 294 294 294 294 294 294 294 294 293 293 293 293 293 293 293 293 293 293 293 293 293 293 293 292 291 289 288
303 305 304 304 303 303 302 301 300 299 299 298 298 298 295 292 288 286 287 288 288 286 285 286 287 288 291 295 297 297 295 294 296 300 303 298 292 291 295 297 298 298 300 302 302 300 298 296 295 294 294 294 295 295 296 296 296 295 295 294 294 293 293 293 293 293 293 293 293 293 293 293 293 293 293 293 292 292 292 292 292 292 291 290 288 286
311 310 308 306 305 304 303 302 301 300 299 299 298 297 295 291 287 284 284 283 282 281 282 284 286 287 289 292 295 294 293 295 297 301 304 299 293 291 295 296 296 296 298 298 297 299 300 300 299 298 297 296 296 295 296 296 295 295 294 294 293 292 292 293 293 293 293 293 292 292 292 292 292 292 292 292 291 291 291 291 291 291 290 289 287 285
310 308 307 306 305 305 304 303 302 301 301 300 300 298 295 292 289 286 284 282 280 279 280 282 284 285 285 284 282 280 284 290 294 298 300 296 291 291 293 293 294 295 295 293 289 288 295 299 300 300 299 297 296 295 295 294 294 294 294 293 292 291 292 293 294 293 293 293 293 292 292 291 291 291 290 290 290 289 289 290 290 290 288 287 285 283
308 307 305 305 305 304 304 303 303 302 302 301 301 299 297 294 291 288 286 284 282 280 279 280 282 283 283 282 280 280 282 285 289 294 296 294 291 291 292 292 293 293 294 292 289 285 284 286 294 297 297 296 295 294 294 294 293 292 292 291 290 290 291 293 293 293 292 293 292 292 292 291 290 290 290 289 289 288 288 289 289 287 286 285 283 282
306 305 304 304 304 304 304 304 303 303 302 302 301 300 298 296 293 291 289 287 284 282 280 280 280 281 283 284 283 282 283 284 287 292 294 293 290 290 292 292 292 293 294 293 291 288 285 286 290 294 296 296 295 294 293 293 292 292 291 290 289 290 291 291 292 292 291 291 291 290 290 290 290 289 289 288 288 287 287 289 288 287 285 284 283 283
305 304 304 304 305 305 305 305 305 304 304 303 302 301 299 297 295 293 292 290 288 286 283 280 278 278 279 280 282 283 284 285 288 291 292 290 288 288 290 290 291 292 292 291 291 290 289 288 289 291 294 295 295 295 294 293 293 292 291 290 289 289 289 290 290 290 290 290 289 288 288 288 288 288 288 287 287 287 287 288 288 287 286 285 284 283
304 304 304 305 306 306 306 306 306 306 305 304 303 302 301 300 298 296 295 294 292 289 286 283 280 278 276 275 276 277 280 284 287 290 289 287 286 286 287 288 289 290 289 289 288 288 288 288 289 290 291 292 294 295 296 296 296 294 293 292 291 290 289 289 289 289 289 288 288 287 286 286 286 286 286 286 286 286 287 288 288 287 287 285 283 281
304 304 305 306 307 307 306 307 306 306 306 305 304 303 303 302 300 298 296 295 293 292 290 287 284 281 278 275 274 275 277 281 284 286 286 284 283 282 282 283 286 286 285 285 286 286 287 288 289 290 290 289 290 294 296 298 298 296 294 293 292 291 290 289 289 288 287 286 285 285 286 286 285 285 286 285 286 287 286 286 286 286 286 284 283 280
304 305 306 307 307 307 306 306 306 306 305 305 305 304 303 302 301 300 298 296 295 293 292 289 287 285 283 280 278 277 278 280 282 283 284 283 282 280 279 280 282 282 280 280 281 283 285 287 288 289 289 289 289 291 293 296 296 296 295 294 294 292 291 290 289 288 286 285 285 285 286 285 285 285 285 285 286 286 286 286 286 286 287 286 284 282
304 305 306 307 308 308 307 306 305 305 305 304 304 303 303 302 302 301 299 297 296 294 292 290 288 287 286 284 283 282 281 281 282 283 284 283 282 279 278 278 279 280 279 278 278 279 280 281 282 284 285 289 290 291 292 293 293 293 295 295 295 293 291 291 290 288 287 286 285 285 285 285 284 284 284 284 284 284 284 284 285 287 286 285 285 285
306 306 306 307 308 307 306 304 304 304 304 304 304 304 303 303 303 303 301 299 297 295 294 292 290 288 287 286 286 285 284 284 284 285 285 284 283 280 278 276 276 278 279 278 277 276 277 278 279 280 282 284 287 289 291 290 290 291 294 295 294 293 293 293 291 289 288 285 284 283 283 284 284 283 282 282 281 281 280 282 283 285 284 283 282 283
308 308 307 307 307 306 304 304 304 304 305 305 305 304 304 304 304 304 303 302 300 299 298 296 295 293 292 291 289 288 287 287 287 287 286 286 286 284 280 277 276 276 277 278 277 276 276 276 277 279 280 281 283 285 286 287 288 290 292 291 290 291 292 292 290 288 287 285 283 282 283 284 284 284 282 281 280 280 279 279 280 281 281 280 278 278
308 307 306 306 306 305 305 305 305 305 306 306 305 304 303 303 303 303 303 303 302 302 301 301 299 298 297 296 296 295 294 293 292 291 290 290 289 287 284 280 278 276 276 276 276 275 275 275 275 276 277 279 281 283 285 286 287 288 289 288 289 290 292 291 290 289 288 286 285 284 284 283 283 283 282 281 280 280 279 279 278 278 277 277 275 274
305 304 305 305 305 305 305 306 306 307 308 307 305 303 303 302 302 301 301 300 300 301 302 301 299 298 296 297 298 300 299 298 297 296 295 294 292 290 288 285 282 280 277 275 274 276 276 276 274 274 276 277 278 280 282 284 286 287 288 287 287 289 291 291 292 292 290 288 286 285 284 282 281 281 280 280 279 279 279 277 277 276 274 273 273 273
303 303 304 305 306 307 308 308 308 308 308 307 305 304 303 303 302 301 300 299 298 299 299 299 298 296 295 295 297 300 301 301 301 300 298 297 295 294 291 289 287 284 280 275 273 275 278 278 277 276 276 277 277 277 280 282 284 285 286 286 285 284 283 286 289 291 290 288 286 285 283 282 281 281 281 280 279 278 278 276 275 275 275 274 274 273
304 305 306 307 308 309 309 309 309 309 308 306 305 304 304 304 303 302 301 299 298 297 297 298 297 296 296 295 296 299 301 303 304 304 302 302 300 298 295 292 289 286 283 278 274 273 274 277 278 280 280 280 277 276 277 279 281 283 284 284 284 283 281 284 286 287 287 287 286 286 284 283 283 283 283 281 280 279 279 279 279 279 278 277 275 274
308 308 308 309 309 309 308 308 309 309 308 306 305 305 305 306 305 303 301 299 297 296 297 297 296 293 293 295 297 299 300 302 304 305 305 305 304 302 300 296 293 289 286 282 279 276 273 273 276 279 282 281 280 278 277 277 278 280 282 283 284 284 284 285 285 284 284 284 285 286 286 285 283 282 281 282 283 284 283 282 281 280 279 277 275 273
310 310 310 310 310 309 308 309 309 309 308 307 306 306 306 306 305 304 302 300 298 297 298 298 295 291 290 292 294 296 297 298 300 303 304 305 305 305 304 301 297 294 290 287 283 280 277 275 274 275 276 278 279 279 278 278 277 278 279 281 283 283 283 283 284 284 283 283 284 285 286 287 286 284 283 285 286 286 286 284 282 280 278 276 274 272
311 311 310 310 310 309 309 310 310 309 308 307 306 307 307 306 306 305 303 302 300 299 298 298 295 293 291 292 292 293 294 295 297 299 301 303 303 304 304 302 300 298 296 293 289 285 281 278 275 273 271 270 272 275 277 278 277 277 278 279 281 281 281 283 284 285 285 284 284 285 286 286 286 286 286 286 286 286 286 285 283 281 278 275 273 272
311 310 310 309 309 309 309 309 309 309 307 307 307 307 307 308 307 305 303 302 301 299 297 296 294 294 293 294 294 294 295 295 296 297 298 300 302 303 302 302 301 299 298 297 294 290 286 283 279 274 269 265 264 267 272 275 276 277 278 278 279 279 281 284 286 287 288 287 286 286 286 285 284 283 283 283 283 285 286 285 284 282 279 276 274 272
311 310 310 309 308 307 307 308 308 308 306 306 306 306 307 308 308 306 304 303 301 299 296 294 294 294 294 294 295 296 296 296 296 297 298 299 300 301 301 301 301 300 299 298 297 296 294 292 288 283 277 268 263 262 265 270 275 278 279 280 280 282 283 286 288 289 289 288 288 287 286 285 283 281 279 278 280 282 285 285 285 284 282 280 277 274
311 311 310 309 308 307 307 307 307 306 305 305 305 305 305 306 307 307 306 305 302 300 298 296 294 293 293 294 295 296 297 296 296 296 298 299 300 300 299 299 299 299 298 298 298 298 298 296 294 293 290 284 275 268 265 270 276 280 283 284 284 286 286 287 288 288 289 288 288 287 287 285 283 281 278 276 278 281 284 285 285 285 285 284 281 278
Height
791 790 789 789 788 786 785 784 784 782 780 779 779 778 776 775 774 773 772 771 770 769 767 766 765 764 763 762 761 760 759 759 757 756 755 754 753 752 750 749 748 747 746 745 744 743 742 740 739 739 737 736 735 734 733 732 731 730 729 728 727 726 725 724 724 723 722 721 720 719 719 718 717 717 716 715 715 714 714 714 713 713 713 712 712 711
790 789 789 788 787 785 784 783 783 782 780 778 777 776 775 774 772 771 770 769 768 767 766 765 764 763 761 760 759 759 758 757 756 754 753 752 751 749 749 747 746 745 744 743 742 740 739 739 737 736 735 734 733 732 730 729 729 728 726 725 724 724 723 722 721 720 719 719 718 717 716 715 715 714 714 713 712 712 711 711 711 710 710 709 709 709
789 788 787 787 786 785 783 782 781 781 779 778 776 775 774 772 770 769 768 767 766 765 764 764 762 761 760 759 758 757 756 755 754 753 751 750 749 748 746 745 744 743 742 741 739 739 737 736 735 734 733 732 730 729 728 727 726 725 724 723 722 721 720 719 719 718 717 716 715 714 714 713 712 712 711 710 710 709 709 709 708 708 707 707 706 706
789 787 786 785 785 784 783 781 780 779 778 776 775 773 772 771 769 768 767 765 764 764 763 762 761 759 758 757 756 755 754 753 752 751 749 748 747 746 744 744 742 741 740 739 738 736 735 734 733 732 731 729 728 727 726 725 724 723 722 721 720 719 718 717 716 715 714 714 713 712 711 710 710 709 709 708 707 707 706 706 705 705 704 704 704 703
788 787 786 785 784 782 781 780 779 778 776 775 773 772 770 769 768 766 765 764 763 762 761 760 759 758 757 755 754 753 752 751 750 749 748 746 745 744 743 741 740 739 738 737 735 734 733 732 731 729 728 727 726 725 724 723 721 720 719 718 717 716 715 714 714 713 712 711 710 709 709 708 707 707 706 705 705 704 704 703 703 702 702 701 701 700
787 787 785 784 783 781 779 779 778 776 774 773 772 770 769 768 766 765 764 763 762 761 759 759 758 756 755 754 753 752 751 749 748 747 746 744 743 742 740 739 738 737 736 734 733 732 731 730 729 727 726 725 724 723 721 720 719 718 717 716 715 714 713 712 711 710 709 709 708 707 706 706 705 704 704 703 702 702 701 701 700 700 699 699 698 698
786 786 785 784 782 780 779 778 776 775 774 771 769 768 767 766 765 764 763 762 761 759 758 757 756 755 754 752 751 750 749 748 746 745 744 742 741 740 739 737 736 735 734 732 731 730 729 728 726 725 724 723 721 720 719 718 717 716 715 714 713 712 711 710 709 708 707 706 705 705 704 703 702 702 701 700 700 699 699 698 698 697 696 696 695 695
784 784 784 782 780 779 777 776 775 774 773 771 769 766 765 764 763 763 761 760 759 758 757 755 754 753 752 750 749 748 747 746 744 743 741 740 739 738 736 735 734 733 732 730 729 728 727 725 724 723 722 720 719 718 717 716 714 714 712 711 710 709 709 708 707 706 705 704 703 702 701 701 700 699 699 698 697 697 696 695 695 694 694 693 693 692
784 782 781 781 780 778 775 774 774 773 772 770 768 766 764 762 761 760 760 759 758 757 756 754 752 750 749 749 748 746 745 744 743 741 739 738 736 735 734 733 732 731 729 728 727 725 724 723 722 721 719 718 717 716 714 714 712 711 710 709 708 707 706 705 704 703 702 701 700 700 699 698 697 697 696 695 695 694 694 693 692 692 691 690 689 689
783 781 780 779 779 778 775 773 771 770 770 769 767 766 764 762 760 759 757 757 756 755 754 753 751 749 747 746 745 744 743 742 741 740 738 736 735 734 733 732 730 729 727 726 725 723 722 721 719 718 717 716 714 713 712 711 710 709 708 707 706 705 704 703 702 701 700 699 698 697 696 695 695 694 693 693 692 691 690 690 689 689 688 687 687 686
781 780 779 778 776 776 775 772 770 768 768 767 765 764 764 763 761 758 756 754 754 753 752 751 750 748 746 744 743 743 741 740 738 737 735 734 733 732 731 730 729 727 725 724 723 721 720 719 717 716 714 713 712 711 710 709 708 707 705 704 704 703 702 701 700 699 698 697 695 694 694 693 692 691 690 690 689 688 688 687 686 685 685 684 684 683
780 779 778 776 775 774 773 771 769 767 766 765 764 763 762 762 761 759 757 754 752 751 750 749 748 747 745 743 741 740 739 738 736 734 733 731 730 729 729 728 726 725 724 722 720 719 717 716 715 714 712 711 709 709 708 706 705 704 703 702 701 700 699 698 697 696 695 694 693 692 691 690 689 688 688 687 686 685 684 684 683 683 682 681 681 680
779 779 777 776 774 773 771 769 767 766 765 765 764 762 761 760 760 759 757 754 752 751 749 747 746 744 744 742 741 739 737 736 734 733 731 729 728 728 727 726 724 723 721 719 718 716 714 714 712 711 709 708 707 706 705 704 703 702 701 700 699 698 697 695 694 693 692 691 690 689 688 687 686 685 685 684 683 682 682 681 680 679 679 678 678 677
779 778 776 775 774 772 770 769 767 765 765 764 763 762 760 759 759 758 756 754 752 750 749 746 744 742 741 740 739 738 736 734 733 731 729 728 727 727 726 724 723 721 719 718 715 713 712 711 710 708 707 706 704 704 703 702 701 699 699 698 696 695 694 693 692 691 690 689 688 686 685 684 684 683 682 681 680 679 679 678 677 676 676 675 674 674
778 777 775 774 772 771 769 768 766 765 764 763 762 761 760 759 758 756 755 752 750 749 748 745 742 740 739 738 737 736 735 733 731 729 728 726 725 725 725 723 721 719 718 716 713 711 710 709 708 706 704 703 702 701 700 699 698 697 696 695 694 693 692 690 689 688 687 686 685 684 683 682 681 680 679 678 677 676 676 675 674 673 673 672 671 671
777 776 774 773 771 769 768 767 766 764 763 762 762 761 759 758 756 755 754 752 750 748 746 744 740 737 735 735 735 735 734 732 730 729 727 724 723 723 724 722 720 717 715 714 711 709 708 707 706 704 702 701 700 699 699 697 696 695 694 693 692 690 689 688 687 685 684 683 682 681 680 679 678 677 676 675 674 673 673 672 671 670 669 669 668 668
776 775 773 771 769 768 767 766 765 764 763 762 761 760 759 757 756 754 753 752 749 748 745 743 740 736 732 731 732 733 733 731 729 727 726 723 721 721 722 721 719 715 713 711 709 708 706 705 704 702 700 699 698 697 696 695 694 693 692 690 689 688 687 685 684 683 682 680 679 678 677 676 675 674 673 672 671 670 669 669 668 667 666 666 665 664
775 774 772 770 769 767 766 765 764 764 762 761 760 759 758 757 755 754 752 751 749 746 744 742 739 737 733 730 729 730 731 730 728 726 724 721 719 718 719 719 717 714 712 709 707 706 705 704 702 700 699 697 696 695 694 693 692 690 689 688 687 685 684 683 681 680 679 678 676 675 674 673 672 671 670 669 668 667 667 666 665 664 663 663 662 661
773 773 771 769 768 767 766 765 764 763 762 760 759 758 756 755 754 753 751 749 747 745 742 740 738 735 734 730 729 729 730 729 728 725 723 720 717 715 716 716 714 712 710 707 706 704 703 702 700 698 697 695 694 693 692 690 689 688 687 685 684 683 682 680 679 678 676 675 674 673 671 670 669 668 667 666 665 664 664 663 662 661 660 659 659 658
772 771 770 769 767 766 764 764 763 762 761 760 759 757 755 753 752 750 749 746 744 742 740 738 736 734 732 730 728 728 729 729 727 725 722 719 715 714 714 714 712 710 708 705 704 703 702 700 698 696 695 693 692 691 689 688 687 685 684 683 682 680 679 678 676 675 674 672 671 670 669 668 667 665 664 664 663 662 661 660 659 659 658 657 656 655
770 769 768 768 767 765 763 762 761 761 760 759 758 756 754 752 750 748 745 744 742 740 739 737 735 733 732 730 728 727 727 728 726 724 720 717 714 712 712 712 711 709 706 704 702 701 700 698 696 694 693 691 689 688 687 686 684 683 682 680 679 678 677 675 674 673 671 670 669 667 666 665 664 663 662 661 660 659 658 657 656 656 655 654 653 653
769 767 766 766 766 764 762 761 760 759 759 758 756 754 752 750 747 745 743 742 740 739 738 736 734 733 731 730 728 726 726 726 725 723 720 716 712 710 710 710 709 707 704 702 700 699 698 697 694 692 690 689 687 686 684 683 682 680 679 678 677 675 674 673 671 670 669 667 666 665 664 663 661 660 659 658 657 656 655 654 654 653 652 651 650 650
768 766 765 764 764 763 761 759 758 757 756 755 754 752 749 748 745 743 742 740 739 738 736 735 733 732 730 729 727 725 724 724 724 722 720 716 711 708 709 709 707 705 702 700 699 698 696 694 692 690 688 687 685 684 682 681 679 678 677 675 674 673 672 670 669 668 666 665 664 662 661 660 659 658 657 655 654 654 653 652 651 650 649 648 648 647
766 765 764 763 762 761 759 758 756 755 754 753 751 749 747 746 744 743 741 740 739 737 736 734 732 729 728 727 725 724 722 722 722 721 719 715 711 708 707 707 706 703 700 698 697 696 694 692 690 688 686 684 683 681 680 679 677 675 674 673 672 670 669 668 666 665 664 662 661 660 659 657 656 655 654 653 652 651 650 649 648 647 646 645 644 644
764 763 762 761 760 759 758 756 755 754 752 751 749 748 746 744 743 742 740 739 738 737 735 733 731 728 726 725 724 722 720 720 720 720 718 714 710 707 706 705 704 702 698 696 695 694 693 690 688 686 684 682 680 679 678 676 674 673 672 670 669 668 666 665 664 663 661 660 659 657 656 655 654 653 651 650 649 648 647 646 645 644 643 642 641 640
763 762 760 759 758 757 756 754 753 752 751 750 748 747 745 743 742 740 739 738 737 736 734 732 730 727 725 724 722 720 718 718 718 718 716 714 709 706 704 704 703 700 697 694 693 692 691 688 685 684 682 680 678 676 675 674 672 671 669 668 667 665 664 663 661 660 659 657 656 654 654 652 651 650 649 648 647 645 644 643 642 641 640 639 639 637
761 759 758 757 756 755 754 753 751 750 749 748 747 746 745 743 741 740 738 737 736 735 734 731 729 726 724 722 720 718 717 716 716 716 715 713 709 705 702 702 701 699 695 693 691 690 689 686 684 681 679 677 675 674 673 671 670 669 667 666 664 663 661 660 659 657 656 654 653 652 651 649 649 647 646 645 644 643 642 641 639 639 638 637 635 634
758 757 756 755 754 753 752 751 749 748 747 746 746 745 744 743 741 739 737 736 735 734 733 731 728 726 723 721 719 717 715 714 714 713 713 711 708 704 701 700 699 698 695 691 688 687 686 684 682 679 677 675 673 672 670 669 668 666 664 663 661 660 659 657 656 654 653 652 650 649 648 647 646 644 644 642 641 640 639 638 637 636 635 634 632 631
755 754 754 753 752 751 750 749 748 746 745 745 744 743 743 741 740 738 736 735 734 733 731 729 728 725 723 720 717 715 713 712 711 711 711 709 706 703 700 699 698 696 694 690 686 683 682 681 680 678 675 673 672 670 668 667 665 664 662 660 658 657 656 654 653 652 650 649 648 647 645 644 643 642 641 639 639 637 636 635 634 634 632 631 629 628
754 753 752 751 750 749 748 747 745 744 744 743 742 741 741 740 739 737 735 734 734 732 730 728 726 724 722 719 716 713 710 709 709 709 709 708 704 701 699 698 697 695 694 691 686 680 677 676 677 676 674 672 670 668 666 664 663 661 659 657 655 654 653 652 650 649 648 647 645 644 643 641 640 639 638 637 636 635 634 633 632 631 630 628 627 625
752 751 750 749 748 747 746 745 744 743 741 741 740 739 739 738 737 735 734 733 732 730 729 727 725 723 722 720 717 713 708 705 706 708 708 706 703 700 699 697 695 693 693 692 688 682 675 672 671 673 673 671 668 666 664 662 660 659 657 654 653 651 649 649 648 647 645 644 643 641 640 639 637 636 635 634 633 632 631 630 629 629 627 626 624 623
751 750 749 748 746 745 744 743 742 741 740 739 738 737 736 735 734 734 732 731 730 729 727 725 724 722 720 719 717 713 708 704 704 706 707 705 702 699 697 696 694 691 691 691 689 685 679 672 668 668 669 668 666 664 662 660 659 657 655 653 650 648 647 646 645 644 642 641 639 638 637 636 634 633 632 631 630 629 628 628 627 626 625 624 622 620
750 749 748 746 745 744 743 742 740 739 738 737 736 735 734 734 733 732 731 730 729 728 726 724 722 720 719 717 715 712 707 704 703 704 705 704 701 697 695 694 692 690 688 687 687 684 681 675 669 666 665 665 664 662 659 658 656 654 653 650 648 645 644 643 643 641 639 638 636 635 634 633 631 630 629 628 627 626 625 624 624 624 623 621 619 618
749 747 746 745 744 742 741 740 739 738 737 736 734 734 733 732 731 730 729 728 727 726 724 723 721 719 717 715 712 709 705 703 702 703 704 702 700 697 694 693 691 689 686 684 683 681 679 675 671 667 664 661 660 659 658 655 654 652 650 649 646 644 642 641 640 638 637 635 634 632 630 629 628 627 626 625 624 623 622 621 621 620 620 619 618 616
747 746 745 744 742 741 740 739 738 736 735 734 733 732 731 730 729 728 727 726 725 724 723 721 719 718 716 714 710 707 703 700 700 701 702 700 698 695 693 691 689 688 685 683 680 678 676 672 670 667 664 659 656 655 654 653 651 649 647 646 644 642 640 639 637 636 634 633 631 629 628 626 625 624 623 621 621 620 619 619 618 617 617 616 615 614
746 744 743 742 741 740 739 737 736 735 734 733 732 730 729 728 727 726 725 724 723 721 720 719 717 716 714 712 709 706 702 699 698 699 699 698 697 694 692 689 687 686 684 681 679 676 674 670 667 665 663 659 655 652 650 649 649 647 645 643 641 640 638 636 635 634 632 630 628 626 625 624 622 621 620 619 618 617 616 616 615 614 613 612 612 611
745 743 742 741 740 739 738 736 735 734 732 731 730 729 728 727 725 724 723 721 720 719 718 716 714 713 711 709 707 704 701 698 696 696 696 696 695 693 690 687 685 684 683 680 677 674 672 669 665 663 661 658 655 651 648 646 645 644 642 640 639 637 635 634 633 631 630 628 625 624 622 621 620 619 617 616 615 614 613 612 611 610 609 609 608 607
744 742 741 740 739 738 737 735 734 732 731 730 729 727 726 725 724 722 721 719 718 716 715 713 711 709 708 706 704 702 699 697 695 694 693 693 692 691 689 685 683 682 681 679 676 674 671 668 664 661 658 655 653 650 648 645 643 640 638 637 636 634 633 631 630 629 627 625 623 621 620 619 618 616 615 613 612 611 609 608 607 606 606 605 604 603
743 741 740 739 738 737 735 734 733 731 730 729 727 726 724 723 721 720 719 717 715 714 712 711 709 706 704 702 700 699 697 695 693 692 691 690 689 688 686 684 681 679 678 676 674 672 670 667 664 660 657 653 650 648 646 644 642 639 636 634 632 631 629 629 627 626 624 623 621 619 617 616 615 614 612 610 609 608 606 605 604 603 602 601 599 598
742 740 739 738 737 736 734 733 731 730 728 727 725 724 723 721 719 718 716 714 713 711 710 708 706 704 701 699 697 696 694 692 691 689 688 687 686 685 684 682 679 677 675 673 672 670 668 666 663 659 657 654 650 646 644 641 639 637 635 633 629 627 625 625 624 623 622 620 619 617 615 613 612 611 609 608 607 605 604 602 601 599 599 598 597 595
741 739 738 737 735 734 733 731 730 729 727 725 724 722 721 719 718 715 714 712 710 709 707 706 704 701 699 696 694 693 691 690 688 687 686 684 683 682 681 679 677 675 673 671 669 668 666 664 661 658 655 652 649 645 642 639 637 635 634 631 628 624 623 622 621 620 619 617 616 614 613 611 610 608 607 605 603 602 600 599 598 596 595 595 594 593
740 739 737 735 734 733 731 730 728 727 726 724 723 721 719 718 716 714 712 710 708 706 705 704 702 699 696 693 691 689 688 687 686 684 683 682 681 679 678 676 674 673 671 669 667 664 663 661 659 656 653 650 647 644 640 636 634 633 632 629 626 623 620 618 618 617 616 614 613 612 611 609 607 605 604 602 600 598 597 596 595 594 593 591 590 589
739 737 736 734 733 731 730 728 727 725 724 723 721 719 718 716 715 713 711 709 707 705 703 702 700 698 695 691 688 685 684 684 683 682 681 679 678 677 675 673 672 670 669 667 664 662 659 658 656 653 650 648 646 643 639 634 632 629 628 627 625 622 619 615 613 614 614 612 610 609 608 606 604 602 600 599 597 595 594 593 591 590 589 588 587 586
738 736 734 733 731 730 729 727 726 724 723 721 719 718 716 715 714 712 710 708 706 704 702 700 699 696 694 690 687 684 681 680 679 679 678 677 675 674 673 671 669 668 666 665 662 659 657 654 652 650 648 646 644 640 637 633 630 627 625 623 623 621 618 614 611 611 610 609 607 606 605 603 601 599 597 595 594 592 590 589 588 587 586 585 584 583
737 735 733 732 730 729 727 726 724 723 721 720 718 716 714 713 712 711 709 707 704 702 701 699 697 695 692 689 686 683 680 678 676 675 674 673 673 672 670 669 667 665 664 662 660 658 655 652 649 647 645 643 641 638 634 631 628 625 622 620 619 618 615 612 610 609 607 605 604 602 601 600 599 597 594 592 590 589 588 587 585 584 582 581 580 579
735 734 732 731 729 728 726 725 724 722 720 718 716 715 713 712 710 709 707 705 703 701 699 698 696 694 691 687 685 682 679 676 674 672 671 670 669 668 667 666 664 663 661 659 657 655 653 650 647 644 642 640 638 634 632 629 626 623 619 617 616 614 612 610 608 607 605 603 601 599 598 597 596 594 592 589 587 586 584 584 582 581 579 578 577 576
734 733 731 730 728 727 725 724 722 721 719 717 715 713 712 710 709 707 705 704 702 700 698 696 694 692 689 687 684 682 679 676 673 670 669 667 666 664 664 662 661 659 658 656 654 652 649 647 645 643 641 638 634 630 627 625 623 621 618 615 614 612 609 607 605 604 602 601 599 597 595 594 593 591 589 587 584 582 580 579 578 577 576 575 573 572
734 732 731 729 728 726 724 723 721 720 718 715 713 712 710 709 708 706 704 702 700 699 697 694 693 690 688 685 683 681 679 676 673 670 668 665 664 662 660 659 657 656 654 653 650 648 646 644 642 640 639 636 633 628 624 621 619 618 616 614 611 609 607 604 602 601 599 598 596 594 594 593 591 589 587 584 582 579 577 575 574 573 572 571 570 568
733 732 730 729 727 725 723 722 720 719 717 714 712 710 708 707 706 705 703 701 699 697 695 693 691 689 686 683 681 679 677 674 672 669 667 664 663 660 659 657 654 653 650 648 646 644 642 639 638 636 635 633 630 626 622 619 616 615 613 611 609 607 604 602 599 598 597 595 594 592 591 590 589 587 585 583 579 575 573 571 569 569 568 568 566 564
732 731 729 728 726 724 723 721 719 718 715 714 711 709 707 705 704 703 701 700 698 696 694 692 690 687 684 682 679 677 675 673 670 668 665 663 661 659 657 654 653 650 648 645 642 640 638 635 633 631 630 629 627 624 620 617 614 613 611 609 607 605 603 600 597 595 594 593 591 589 589 587 586 585 583 580 577 573 569 567 565 564 564 564 563 561
731 729 728 727 725 724 722 720 718 716 714 713 710 708 706 704 702 701 699 698 696 694 692 690 688 686 683 680 678 676 674 671 669 666 663 661 660 658 656 653 651 649 646 643 640 637 635 632 629 626 624 624 624 622 619 616 613 611 609 606 605 603 601 598 595 593 592 590 589 587 586 584 583 582 580 578 575 571 567 563 561 559 559 560 559 558